This demonstration page uses our WeatherBlox Daily Observations layout. Learn more.

Left ArrowRight Arrow

36.19886, -115.1175

Hourly Observations for April 17, 2021

Temp ( °F °C ) Dew Point ( °F °C ) Humidity (%) Winds ( mph kmh ) Pressure ( in mb ) Visibility ( mi km ) Precip ( " mm )
12:53 am 00:53 Clear 64 17.8 28 -2.2 26 26 ENE 10 17 29.97 1015 10 16.0934 0 0
1:53 am 01:53 Mostly Clear 62 16.7 30 -1.1 30 30 NE 10 17 29.96 1015 10 16.0934 0 0
2:53 am 02:53 Mostly Clear 62 16.7 29 -1.7 29 29 NNE 6 9 29.97 1015 10 16.0934 0 0
3:53 am 03:53 Clear 61 16.1 28 -2.2 29 29 NNW 13 20 29.98 1015 10 16.0934 0 0
4:53 am 04:53 Mostly Clear 60 15.6 27 -2.8 28 28 NNW 12 19 29.98 1015 10 16.0934 0 0
5:53 am 05:53 Mostly Cloudy 59 15 27 -2.8 29 29 N 10 17 30 1016 10 16.0934 0 0
6:53 am 06:53 Sunny 58 14.4 26 -3.3 29 29 NNW 10 17 30.02 1017 10 16.0934 0 0
7:53 am 07:53 Sunny 60 15.6 26 -3.3 27 27 NNW 16 26 30.04 1017 10 16.0934 0 0
8:53 am 08:53 Sunny 62 16.7 25 -3.9 24 24 NNW 15 24 30.04 1017 10 16.0934 0 0
9:53 am 09:53 Sunny 64 17.8 25 -3.9 23 23 NW 8 13 30.05 1018 10 16.0934 0 0
10:53 am 10:53 Sunny 65 18.3 25 -3.9 22 22 E 6 9 30.04 1017 10 16.0934 0 0
11:53 am 11:53 Sunny 68 20 24 -4.4 19 19 VRB 7 11 30.03 1017 10 16.0934 0 0
12:53 pm 12:53 Mostly Sunny 69 20.6 23 -5 17 17 VRB 3 6 30 1016 10 16.0934 0 0
1:53 pm 13:53 Mostly Sunny 72 22.2 22 -5.6 15 15 E 9 15 29.98 1015 10 16.0934 0 0
2:53 pm 14:53 Mostly Cloudy 73 22.8 20 -6.7 13 13 N 9 15 29.95 1014 10 16.0934 0 0
3:53 pm 15:53 Partly Cloudy 74 23.3 19 -7.2 12 12 ENE 8 13 29.94 1014 10 16.0934 0 0
4:53 pm 16:53 Mostly Cloudy 73 22.8 18 -7.8 12 12 NNE 14 22 29.95 1014 10 16.0934 0 0
5:53 pm 17:53 Mostly Cloudy 71 21.7 19 -7.2 14 14 NE 15 24 29.95 1014 10 16.0934 0 0
6:53 pm 18:53 Mostly Cloudy 71 21.7 18 -7.8 13 13 NNE 15 24 29.97 1015 10 16.0934 0 0
7:53 pm 19:53 Mostly Clear 69 20.6 19 -7.2 15 15 N 13 20 29.99 1016 10 16.0934 0 0
8:53 pm 20:53 Clear 68 20 17 -8.3 14 14 NNE 10 17 30.02 1017 10 16.0934 0 0
9:53 pm 21:53 Clear 67 19.4 16 -8.9 14 14 N 10 17 30.03 1017 10 16.0934 0 0
10:53 pm 22:53 Clear 66 18.9 17 -8.3 15 15 N 12 19 30.05 1018 10 16.0934 0 0
11:53 pm 23:53 Clear 65 18.3 15 -9.4 14 14 NNE 8 13 30.06 1018 10 16.0934 0 0

Powered by AerisWeather